Simultaneous Nadir Overpasses (SNOs) Predictions

Prediction of SNOs between METOP-A and NPP Satellite Orbit:

Table of predicted SNOs for the next 14.0 days since TLE Epoch: 8/17/2015
Index Date (METOP-A) Time (METOP-A) Lat,Lon (METOP-A) SZA (METOP-A ) Date (NPP) Time (NPP) Lat,Lon (NPP) SZA (NPP ) Distance(km) Time Diff (sec)
1 08/17/2015 04:04:13 -73.03, -69.02 120.37 08/17/2015 04:04:53 -73.02, -68.93 120.38 2.95 40
2 08/17/2015 04:54:52 73.05, 98.36 59.67 08/17/2015 04:55:39 73.03, 98.36 59.64 2.26 47
3 08/17/2015 05:45:34 -73.05, -94.30 120.32 08/17/2015 05:46:23 -73.03, -94.33 120.35 2.64 49
4 08/17/2015 06:36:14 73.03, 72.97 59.67 08/17/2015 06:37:09 73.04, 72.97 59.67 1.18 55
5 08/17/2015 07:26:56 -73.03,-119.69 120.32 08/17/2015 07:27:53 -73.04,-119.72 120.32 1.29 57
6 08/17/2015 08:17:36 73.00, 47.58 59.67 08/17/2015 08:18:38 73.00, 47.69 59.65 3.44 62
7 08/17/2015 09:08:18 -73.01,-145.08 120.31 08/17/2015 09:09:22 -73.00,-145.01 120.34 2.70 64
8 08/17/2015 09:58:57 73.03, 22.31 59.72 08/17/2015 10:00:08 73.00, 22.29 59.68 3.23 71
9 08/17/2015 10:49:40 -72.99,-170.46 120.31 08/17/2015 10:50:52 -73.01,-170.40 120.31 3.02 72
10 08/17/2015 11:40:23 72.81, -3.51 59.54 08/17/2015 11:41:35 72.86, -2.78 59.54 24.68 72
11 08/17/2015 12:31:06 -72.76, 163.73 120.49 08/17/2015 12:32:18 -72.81, 164.64 120.50 30.44 72
12 08/17/2015 13:21:50 72.53, -29.41 59.32 08/17/2015 13:22:59 72.56, -27.54 59.24 62.50 69
13 08/17/2015 14:12:34 -72.44, 137.72
